Hourly Data Report for October 05, 2017

All times are specified in Local Standard Time (LST). Add 1 hour to adjust for Daylight Saving Time where and when it is observed.

WHITE ROCK CAMPBELL SCIENTIFIC
BRITISH COLUMBIA

49°01'05.000" N
122°47'02.000" W
13.00 m
1108910
71785
WWK

Download Data

Hourly Data (October 2017)
Hourly Data Report for October 5, 2017
Temp Definition
°C
Dew Point Temp Definition
°C
Rel Hum Definition
%
Wind Dir Definition
10's deg

Wind Spd Definition
km/h
Visibility Definition
km
Stn Press Definition
kPa
Hmdx Definition


Wind Chill Definition


Weather Definition


TIME
00:00 6.8 5.5 92 0 1   102.04     LegendNANA
01:00 6.8 5.8 93   0   102.07     LegendNANA
02:00 6.3 5.3 94 0 1   102.07     LegendNANA
03:00 5.5 4.7 94   0   102.09     LegendNANA
04:00 5.2 4.4 94   0   102.11     LegendNANA
05:00 4.8 4.0 94   0   102.11     LegendNANA
06:00 4.4 3.6 95   0   102.11     LegendNANA
07:00 5.0 4.3 96   0   102.14     LegendNANA
08:00 7.6 6.1 90 13 1   102.15     LegendNANA
09:00 12.4 8.1 75 20 1   102.16     LegendNANA
10:00 13.4 7.6 68 23 4   102.14     LegendNANA
11:00 14.4 8.2 66 22 5   102.12     LegendNANA
12:00 16.3 8.7 61 26 7   102.08     LegendNANA
13:00 15.8 10.4 70 21 6   102.03     LegendNANA
14:00 15.8 9.5 66 22 6   101.98     LegendNANA
15:00 15.8 9.0 64 22 5   101.93     LegendNANA
16:00 15.2 8.9 66 20 3   101.88     LegendNANA
17:00 14.6 8.2 65 24 2   101.85     LegendNANA
18:00 12.4 8.0 74   0   101.88     LegendNANA
19:00 10.7 8.1 84   0   101.88     LegendNANA
20:00 9.5 7.5 88 5 2   101.87     LegendNANA
21:00 8.4 6.4 88   0   101.86     LegendNANA
22:00 7.8 6.0 88 9 1   101.85     LegendNANA
23:00 7.6 5.6 87 3 2   101.86     LegendNANA

Notes on Data Quality.

Legend

  • E = Estimated
  • M = Missing
  • NA = Not Available
  • ‡ = Partner data that is not subject to review by the National Climate Archives
Date modified: